Regional Weather Roundup
Issued by NWS

Home | Current Version | Previous Version | Text Only | Print | Product List | Glossary On
Versions: 1 2 3 4 5 6 7 8 9 10 11 12 13 14 15 16 17 18 19 20 21 22 23 24 25 26 27 28 29 30 31 32 33 34 35 36 37 38 39 40 41 42 43 44 45 46 47 48 49 50
000
ASUS43 KOAX 030710
RWRNE

WEATHER ROUNDUP FOR NEBRASKA
NATIONAL WEATHER SERVICE OMAHA NE
200 AM CDT THU SEP 03 2015

NOTES: SATELLITE DATA IS BEING USED TO AUGMENT CLOUD COVER ABOVE
       12000 FEET.
       "FAIR" INDICATES FEW OR NO CLOUDS BELOW 12,000 FEET WITH NO
       SIGNIFICANT WEATHER AND/OR OBSTRUCTIONS TO VISIBILITY.

  * THESE STATIONS DO NOT REPORT WEATHER SUCH AS RAIN...SNOW OR FOG.

NEZ001>004-019>022-054>056-030800-
NEBRASKA PANHANDLE

CITY           SKY/WX    TMP DP  RH WIND       PRES   REMARKS
SCOTTSBLUFF    PTCLDY    67  51  56 E6        29.91S
ALLIANCE       CLEAR     61  51  70 SE6       29.91S
CHADRON        CLEAR     64  46  52 CALM      29.83S
KIMBALL        MOCLDY    61  47  59 W8        29.98S
SIDNEY         PTCLDY    60  47  61 SW7       29.95F
$$

NEZ057>060-069>072-079>082-030800-
SOUTHWEST NEBRASKA

CITY           SKY/WX    TMP DP  RH WIND       PRES   REMARKS
NORTH PLATTE   PTCLDY    66  63  90 E6        29.85F
IMPERIAL       CLEAR     68  56  65 CALM      29.86F
LEXINGTON      CLEAR     67  63  86 E3        29.84S
MCCOOK         PTCLDY    75  57  53 S6        29.83F
OGALLALA       CLEAR     70  58  65 E5        29.87F
$$

NEZ005>010-023>029-035>040-094-030800-
NORTH CENTRAL NEBRASKA

CITY           SKY/WX    TMP DP  RH WIND       PRES   REMARKS
VALENTINE      CLEAR     75  61  61 S15       29.82F
AINSWORTH      CLEAR     70  62  74 S9        29.84S
BROKEN BOW     CLEAR     63  60  90 CALM      29.85F
O`NEILL        CLEAR     71  68  92 SE6       29.83F
ORD            CLEAR     66  64  93 CALM      29.83S
THEDFORD       CLEAR     65  61  88 CALM      29.87S
$$

NEZ041-046>049-061>064-073>077-083>087-030800-
SOUTH CENTRAL NEBRASKA

CITY           SKY/WX    TMP DP  RH WIND       PRES   REMARKS
GRAND ISLAND   CLEAR     73  64  73 S9        29.84F
AURORA         CLEAR     73  67  83 S9        29.85S
HASTINGS       CLEAR     76  63  64 S9        29.85F
HEBRON         CLEAR     76  63  64 S10       29.86S
HOLDREGE       CLEAR     71  60  68 S7        29.85S
KEARNEY *      CLEAR     70  61  73 S7        29.84F
YORK           CLEAR     73  66  78 S9        29.85F
$$

NEZ011>018-030>034-042>045-030800-
NORTHEAST NEBRASKA

CITY           SKY/WX    TMP DP  RH WIND       PRES   REMARKS
NORFOLK        CLEAR     72  67  84 SE6       29.83F
ALBION         CLEAR     71  66  84 E6        29.84F
BLAIR          CLEAR     74  67  78 S9        29.87F
COLUMBUS *     CLEAR     73  64  73 S3        29.84F
FREMONT        CLEAR     75  67  76 SE9       29.86S
TEKAMAH        CLEAR     72  70  93 SE6       29.85S
WAYNE          CLEAR     72  68  88 CALM      29.85S
$$

NEZ050>053-065>068-078-088>093-030800-
SOUTHEAST NEBRASKA

CITY           SKY/WX    TMP DP  RH WIND       PRES   REMARKS
LINCOLN        CLEAR     76  67  73 S9        29.86F
OMAHA EPPLEY   CLEAR     77  70  79 S12       29.86F
BEATRICE       CLEAR     75  67  76 S8        29.88S
FALLS CITY     CLEAR     76  69  79 S8        29.89S
NEBRASKA CITY  CLEAR     73  66  78 S9        29.89S
PLATTSMOUTH    CLEAR     74  68  81 CALM      29.87F
$$

NEZ044-045-051>053-067-030800-
OMAHA AREA

CITY           SKY/WX    TMP DP  RH WIND       PRES   REMARKS
OMAHA EPPLEY   CLEAR     77  70  79 S12       29.86F
BLAIR          CLEAR     74  67  78 S9        29.87F
FREMONT        CLEAR     75  67  76 SE9       29.86S
MILLARD        CLEAR     74  69  85 SE5       29.86S
OFFUTT AFB     CLEAR     74  70  86 SE7       29.86F
PLATTSMOUTH    CLEAR     74  68  81 CALM      29.87F
WAHOO          FAIR      70  68  92 SE7       29.85S
$$



USA.gov is the U.S. government's official web portal to all federal, state and local government web resources and services.